Location: Sommers-Bausch Observatory
(40.0037°N, 105.2635°W)
Time: 10:48:24
(UTC-06:00)

Amateur Radio Satellites - All Passes

Search period start: 18 April 2014 10:18
Search period end: 19 April 2014 10:18
Location: Sommers-Bausch Observatory, 40.0037°N, 105.2635°W

Satellite Date Start Highest point End Downlink Frequencies (MHz)
Time Altitude Azimuth
Saudisat 1A 18 Apr 10:21:31 10:22:39 11° 107° (ESE) 10:23:46 436.775 MHz
FUNcube-1 18 Apr 10:22:17 10:23:12 11° 90° (E) 10:24:07 145.950 - 145.970 MHz USB
Oscar 11 18 Apr 10:33:24 10:37:38 49° 100° (E) 10:41:51 145.825 FM, Beacon 2401.500 USB
PCSat 18 Apr 10:37:01 10:42:28 85° 243° (WSW) 10:47:52 145.825 MHz
HO-68 18 Apr 10:44:05 10:51:16 75° 289° (WNW) 10:58:25 435.675 MHz FM
RS-15 18 Apr 11:23:43 11:31:15 20° 345° (NNW) 11:38:46 29.354 - 29.394 USB, Beacon 29.352 USB
KITSAT 1 18 Apr 11:32:09 11:39:37 38° 48° (NE) 11:47:00 435.175 FM
Sapphire 18 Apr 11:35:55 11:40:29 29° 252° (WSW) 11:45:03 437.095 MHz 1200 baud AX-25 AFSK
FUNcube-1 18 Apr 11:55:47 11:59:59 62° 285° (WNW) 12:04:15 145.950 - 145.970 MHz USB
PANSAT 18 Apr 11:55:50 11:57:56 14° 185° (S) 12:00:01 not established
Saudisat 1A 18 Apr 11:57:09 12:01:37 75° 303° (WNW) 12:06:06 436.775 MHz
Oscar 11 18 Apr 12:10:55 12:13:25 15° 295° (WNW) 12:15:55 145.825 FM, Beacon 2401.500 USB
HO-68 18 Apr 12:34:10 12:37:46 15° 307° (NW) 12:41:23 435.675 MHz FM
ITAMSAT 1 18 Apr 12:42:22 12:43:20 11° 58° (ENE) 12:44:19 435.822 SSB
Oscar 19 18 Apr 12:46:33 12:50:25 22° 65° (ENE) 12:54:19 437.125 CW, 437.150 USB
Oscar 16 18 Apr 12:54:06 12:58:24 28° 67° (ENE) 13:02:43 437.025 USB, Beacon 2401.1428
AO-Echo 18 Apr 12:59:54 13:02:02 13° 61° (ENE) 13:04:09 ?
Uribyol 2 18 Apr 13:27:05 13:31:31 30° 67° (ENE) 13:35:57 436.500 FM
KITSAT 1 18 Apr 13:27:28 13:35:15 53° 248° (WSW) 13:42:58 435.175 FM
Saudisat 1A 18 Apr 13:40:26 13:42:00 12° 322° (NW) 13:43:34 436.775 MHz
RS-15 18 Apr 13:41:06 13:49:16 23° 22° (NNE) 13:57:28 29.354 - 29.394 USB, Beacon 29.352 USB
Gurwin Techsat 1B 18 Apr 13:54:12 13:57:26 17° 62° (ENE) 14:00:40 435.225 FM
AO-27 18 Apr 14:05:51 14:10:59 67° 73° (ENE) 14:16:09 436.795 MHz FM
AO-7 18 Apr 14:07:26 14:09:15 11° 43° (NE) 14:11:03 29.400 - 29.500 MHz
Oscar 10/S400 18 Apr 14:07:27 15:26:11 22° 268° (W) 17:55:28 145.825 - 145.975 CW/USB, Beacon 145.810 USB
ITAMSAT 1 18 Apr 14:16:48 14:21:59 83° 75° (ENE) 14:27:12 435.822 SSB
Oscar 19 18 Apr 14:24:33 14:29:26 45° 261° (W) 14:34:23 437.125 CW, 437.150 USB
Oscar 16 18 Apr 14:32:57 14:37:36 35° 263° (W) 14:42:18 437.025 USB, Beacon 2401.1428
AO-Echo 18 Apr 14:34:50 14:40:06 85° 257° (WSW) 14:45:17 ?
TMSAT-1 18 Apr 14:41:27 14:46:03 31° 68° (ENE) 14:50:40 436.925 FM
JAS-1B 18 Apr 14:52:33 14:59:10 29° 65° (ENE) 15:04:55 435.800 - 435.900 CW/SSB
Uosat F 18 Apr 14:55:03 14:57:57 16° 62° (ENE) 15:00:51 435.120 FM
Uribyol 2 18 Apr 15:06:18 15:10:54 32° 263° (W) 15:15:30 436.500 FM
Gurwin Techsat 1B 18 Apr 15:31:34 15:36:50 66° 258° (WSW) 15:42:08 435.225 FM
OPAL 18 Apr 15:40:48 15:45:59 61° 103° (ESE) 15:51:08 ?
AO-27 18 Apr 15:48:17 15:50:57 14° 269° (W) 15:53:38 436.795 MHz FM
AO-7 18 Apr 15:52:12 16:00:05 51° 64° (ENE) 16:07:58 29.400 - 29.500 MHz
RS-15 18 Apr 15:53:40 16:04:30 61° 52° (NE) 16:15:34 29.354 - 29.394 USB, Beacon 29.352 USB
ITAMSAT 1 18 Apr 16:00:48 16:02:05 11° 271° (W) 16:03:22 435.822 SSB
SO-50 18 Apr 16:00:58 16:05:24 67° 119° (ESE) 16:09:53 436.795 FM
ISS 18 Apr 16:08:31 16:11:52 90° 330° (NNW) 16:15:14 145.800 FM
TMSAT-1 18 Apr 16:21:13 16:25:54 32° 264° (W) 16:30:37 436.925 FM
Uosat F 18 Apr 16:31:13 16:36:12 64° 258° (WSW) 16:41:13 435.120 FM
JAS-1B 18 Apr 16:41:21 16:49:31 55° 259° (WSW) 16:56:23 435.800 - 435.900 CW/SSB
UOSAT-12 18 Apr 16:52:47 16:54:21 12° 107° (ESE) 16:55:54 437.025 FM, 437.400 FM
OPAL 18 Apr 17:20:57 17:24:22 18° 300° (WNW) 17:27:46 ?
JAS-2 18 Apr 17:40:59 17:42:47 12° 60° (ENE) 17:44:32 435.800 - 435.900 CW/SSB, 435.910 FM
SO-50 18 Apr 17:43:32 17:46:25 17° 318° (NW) 17:49:20 436.795 FM
AO-7 18 Apr 17:45:38 17:53:01 36° 262° (W) 18:00:28 29.400 - 29.500 MHz
ISS 18 Apr 17:46:34 17:49:00 18° 340° (NNW) 17:51:26 145.800 FM
RS-15 18 Apr 18:06:37 18:16:18 38° 253° (WSW) 18:26:17 29.354 - 29.394 USB, Beacon 29.352 USB
Hamsat 18 Apr 18:19:04 18:23:13 65° 75° (ENE) 18:27:26 145.90 MHz
STRAND 1 18 Apr 18:20:43 18:21:29 10° 89° (E) 18:22:15 ?
UOSAT-12 18 Apr 18:29:17 18:33:49 73° 303° (WNW) 18:38:29 437.025 FM, 437.400 FM
SO-67 18 Apr 18:47:24 18:50:03 21° 70° (ENE) 18:52:42 435.3500 MHz FM
Saudisat 1A 18 Apr 18:47:34 18:48:43 11° 37° (NE) 18:49:52 436.775 MHz
JAS-2 18 Apr 19:21:16 19:27:15 88° 76° (ENE) 19:32:40 435.800 - 435.900 CW/SSB, 435.910 FM
ISS 18 Apr 19:25:37 19:26:48 11° 1° (N) 19:28:00 145.800 FM
HO-68 18 Apr 19:28:07 19:31:51 15° 53° (NE) 19:35:35 435.675 MHz FM
STRAND 1 18 Apr 19:56:10 20:01:17 84° 285° (WNW) 20:06:22 ?
UOSAT-12 18 Apr 20:13:01 20:14:50 12° 323° (NW) 20:16:39 437.025 FM, 437.400 FM
SO-67 18 Apr 20:20:25 20:23:06 21° 265° (W) 20:25:49 435.3500 MHz FM
Saudisat 1A 18 Apr 20:24:44 20:29:09 71° 57° (ENE) 20:33:30 436.775 MHz
ISS 18 Apr 21:02:01 21:04:35 20° 21° (NNE) 21:07:08 145.800 FM
HO-68 18 Apr 21:11:17 21:18:24 78° 72° (ENE) 21:25:34 435.675 MHz FM
JAS-2 18 Apr 21:11:49 21:12:52 11° 270° (W) 21:13:54 435.800 - 435.900 CW/SSB, 435.910 FM
Oscar 11 18 Apr 21:28:00 21:31:55 35° 71° (ENE) 21:35:52 145.825 FM, Beacon 2401.500 USB
STRAND 1 18 Apr 21:38:50 21:39:38 10° 302° (WNW) 21:40:26 ?
MaSat-1 18 Apr 21:45:41 21:48:35 43° 113° (ESE) 21:51:10 437.345 MHz
Saudisat 1A 18 Apr 22:06:50 22:08:08 11° 253° (WSW) 22:09:25 436.775 MHz
ISS 18 Apr 22:38:18 22:41:39 77° 220° (SW) 22:45:00 145.800 FM
FUNcube-1 18 Apr 22:51:42 22:55:55 85° 257° (WSW) 23:00:07 145.950 - 145.970 MHz USB
HO-68 18 Apr 23:02:09 23:06:47 18° 269° (W) 23:11:27 435.675 MHz FM
Oscar 11 18 Apr 23:05:10 23:08:13 19° 267° (W) 23:11:18 145.825 FM, Beacon 2401.500 USB
PCSat 18 Apr 23:38:11 23:40:36 13° 103° (ESE) 23:43:00 145.825 MHz
SO-50 19 Apr 00:33:12 00:37:44 50° 54° (NE) 00:42:19 436.795 FM
Sapphire 19 Apr 00:33:24 00:38:24 40° 111° (ESE) 00:43:26 437.095 MHz 1200 baud AX-25 AFSK
PCSat 19 Apr 01:17:52 01:23:16 79° 299° (WNW) 01:28:43 145.825 MHz
OPAL 19 Apr 01:19:53 01:22:06 13° 57° (ENE) 01:24:20 ?
UOSAT-12 19 Apr 01:21:07 01:23:20 13° 38° (NE) 01:25:32 437.025 FM, 437.400 FM
Uribyol 2 19 Apr 01:43:32 01:44:02 10° 89° (E) 01:44:33 436.500 FM
KITSAT 1 19 Apr 02:01:10 02:07:26 25° 104° (ESE) 02:13:43 435.175 FM
SO-50 19 Apr 02:14:45 02:17:56 18° 250° (WSW) 02:21:09 436.795 FM
Sapphire 19 Apr 02:17:13 02:21:55 30° 309° (NW) 02:26:39 437.095 MHz 1200 baud AX-25 AFSK
AO-27 19 Apr 02:20:13 02:24:26 25° 95° (E) 02:28:38 436.795 MHz FM
ITAMSAT 1 19 Apr 02:30:49 02:35:23 31° 96° (E) 02:39:55 435.822 SSB
Oscar 19 19 Apr 02:36:30 02:41:42 69° 102° (ESE) 02:46:52 437.125 CW, 437.150 USB
AO-Echo 19 Apr 02:43:31 02:47:46 31° 96° (E) 02:51:55 ?
Oscar 16 19 Apr 02:44:40 02:49:54 87° 104° (ESE) 02:55:06 437.025 USB, Beacon 2401.1428
OPAL 19 Apr 02:55:14 03:00:15 82° 255° (WSW) 03:05:23 ?
UOSAT-12 19 Apr 02:59:31 03:04:16 79° 57° (ENE) 03:08:57 437.025 FM, 437.400 FM
TMSAT-1 19 Apr 02:59:40 03:01:48 12° 89° (E) 03:03:55 436.925 FM
PCSat 19 Apr 03:04:48 03:07:35 14° 319° (NW) 03:10:23 145.825 MHz
Uribyol 2 19 Apr 03:18:57 03:24:09 86° 285° (WNW) 03:29:20 436.500 FM
AO-40 19 Apr 03:30:49 09:32:52 37° 181° (S) 01:54:09 Beacon 2401.320
Gurwin Techsat 1B 19 Apr 03:48:30 03:53:42 54° 100° (E) 03:58:52 435.225 FM
KITSAT 1 19 Apr 03:54:02 04:02:06 70° 303° (WNW) 04:10:15 435.175 FM
AO-7 19 Apr 03:56:43 04:01:01 15° 89° (E) 04:05:18 29.400 - 29.500 MHz
AO-27 19 Apr 03:59:16 04:04:02 38° 291° (WNW) 04:08:47 436.795 MHz FM
ITAMSAT 1 19 Apr 04:10:18 04:14:49 31° 293° (WNW) 04:19:19 435.822 SSB
Oscar 19 19 Apr 04:17:30 04:20:27 15° 299° (WNW) 04:23:23 437.125 CW, 437.150 USB
AO-Echo 19 Apr 04:22:28 04:26:25 26° 293° (WNW) 04:30:18 ?
Oscar 16 19 Apr 04:26:32 04:28:29 12° 301° (WNW) 04:30:26 437.025 USB, Beacon 2401.1428
JAS-1B 19 Apr 04:27:17 04:32:34 39° 99° (E) 04:38:03 435.800 - 435.900 CW/SSB
TMSAT-1 19 Apr 04:36:58 04:42:16 77° 285° (WNW) 04:47:33 436.925 FM
Uosat F 19 Apr 04:39:46 04:44:29 41° 99° (E) 04:49:10 435.120 FM
UOSAT-12 19 Apr 04:42:20 04:43:44 11° 253° (WSW) 04:45:09 437.025 FM, 437.400 FM
Uribyol 2 19 Apr 05:01:25 05:02:49 11° 301° (WNW) 05:04:13 436.500 FM
Gurwin Techsat 1B 19 Apr 05:29:31 05:33:14 20° 297° (WNW) 05:36:57 435.225 FM
STRAND 1 19 Apr 05:34:50 05:37:56 16° 62° (ENE) 05:41:03 ?
AO-7 19 Apr 05:46:33 05:54:55 82° 107° (ESE) 06:03:16 29.400 - 29.500 MHz
KITSAT 1 19 Apr 05:53:30 05:59:07 20° 326° (NW) 06:04:45 435.175 FM
Hamsat 19 Apr 06:07:25 06:09:24 13° 91° (E) 06:11:22 145.90 MHz
RS-15 19 Apr 06:16:49 06:27:00 40° 108° (ESE) 06:36:50 29.354 - 29.394 USB, Beacon 29.352 USB
JAS-1B 19 Apr 06:18:31 06:23:07 26° 295° (WNW) 06:27:48 435.800 - 435.900 CW/SSB
Uosat F 19 Apr 06:19:09 06:23:01 23° 295° (WNW) 06:26:51 435.120 FM
STRAND 1 19 Apr 07:11:33 07:16:36 62° 258° (WSW) 07:21:41 ?
AO-7 19 Apr 07:40:41 07:46:47 24° 306° (NW) 07:52:55 29.400 - 29.500 MHz
Hamsat 19 Apr 07:41:26 07:45:41 54° 286° (WNW) 07:49:56 145.90 MHz
SO-67 19 Apr 07:45:03 07:48:04 26° 96° (E) 07:51:04 435.3500 MHz FM
MaSat-1 19 Apr 07:47:16 07:50:14 53° 247° (WSW) 07:53:44 437.345 MHz
JAS-2 19 Apr 08:14:48 08:20:12 82° 103° (ESE) 08:26:11 435.800 - 435.900 CW/SSB, 435.910 FM
PCSat 19 Apr 08:25:05 08:27:32 13° 40° (NE) 08:29:58 145.825 MHz
RS-15 19 Apr 08:27:47 08:38:53 60° 309° (NW) 08:49:43 29.354 - 29.394 USB, Beacon 29.352 USB
HO-68 19 Apr 08:42:22 08:45:47 14° 89° (E) 08:49:10 435.675 MHz FM
SO-67 19 Apr 09:18:45 09:21:01 17° 291° (WNW) 09:23:17 435.3500 MHz FM
Sapphire 19 Apr 09:21:58 09:26:43 30° 51° (NE) 09:31:26 437.095 MHz 1200 baud AX-25 AFSK
PANSAT 19 Apr 09:52:00 09:53:57 14° 173° (S) 09:55:55 not established
KITSAT 1 19 Apr 09:53:49 09:58:28 16° 28° (NNE) 10:03:06 435.175 FM
JAS-2 19 Apr 10:02:19 10:04:45 13° 299° (WNW) 10:07:16 435.800 - 435.900 CW/SSB, 435.910 FM
PCSat 19 Apr 10:06:31 10:11:57 72° 60° (ENE) 10:17:21 145.825 MHz
